Time,TemperatureF,DewpointF,PressureIn,WindDirection,WindDirectionDegrees,WindSpeedMPH,WindSpeedGustMPH,Humidity,HourlyPrecipIn,Conditions,Clouds,dailyrainin,SoftwareType,DateUTC
2013-01-05 00:02:00,11.2,7.0,30.13,East,89,0.0,-999.0,84,-99.99,,,0.00,weatherlink.com 1.10,2013-01-05 06:02:00,
2013-01-05 00:17:00,10.7,7.0,30.12,East,89,0.0,-999.0,84,-99.99,,,0.00,weatherlink.com 1.10,2013-01-05 06:17:00,
2013-01-05 00:31:00,10.4,7.0,30.13,East,89,0.0,-999.0,84,-99.99,,,0.00,weatherlink.com 1.10,2013-01-05 06:31:00,
2013-01-05 00:45:00,10.3,6.0,30.12,East,89,0.0,-999.0,84,-99.99,,,0.00,weatherlink.com 1.10,2013-01-05 06:45:00,
2013-01-05 00:59:00,10.2,6.0,30.12,East,95,0.0,-999.0,84,-99.99,,,0.00,weatherlink.com 1.10,2013-01-05 06:59:00,
2013-01-05 01:14:00,9.9,6.0,30.12,East,95,0.0,-999.0,84,-99.99,,,0.00,weatherlink.com 1.10,2013-01-05 07:14:00,
2013-01-05 01:28:00,10.1,6.0,30.11,East,95,0.0,-999.0,85,-99.99,,,0.00,weatherlink.com 1.10,2013-01-05 07:28:00,
2013-01-05 01:42:00,10.0,6.0,30.11,East,95,0.0,-999.0,85,-99.99,,,0.00,weatherlink.com 1.10,2013-01-05 07:42:00,
2013-01-05 01:56:00,10.1,6.0,30.11,East,95,2.0,-999.0,85,-99.99,,,0.00,weatherlink.com 1.10,2013-01-05 07:56:00,
2013-01-05 02:11:00,10.2,7.0,30.11,East,95,0.0,-999.0,85,-99.99,,,0.00,weatherlink.com 1.10,2013-01-05 08:11:00,
2013-01-05 02:25:00,10.8,7.0,30.10,ESE,112,0.0,-999.0,86,-99.99,,,0.00,weatherlink.com 1.10,2013-01-05 08:25:00,
2013-01-05 02:39:00,12.6,9.0,30.10,ESE,115,3.0,-999.0,87,-99.99,,,0.00,weatherlink.com 1.10,2013-01-05 08:39:00,
2013-01-05 02:54:00,13.2,10.0,30.09,ESE,106,3.0,-999.0,86,-99.99,,,0.00,weatherlink.com 1.10,2013-01-05 08:54:00,
2013-01-05 03:08:00,13.2,10.0,30.09,East,95,2.0,-999.0,86,-99.99,,,0.00,weatherlink.com 1.10,2013-01-05 09:08:00,
2013-01-05 03:22:00,12.7,9.0,30.07,ENE,73,2.0,-999.0,85,-99.99,,,0.00,weatherlink.com 1.10,2013-01-05 09:22:00,
2013-01-05 03:36:00,12.3,9.0,30.07,ENE,73,0.0,-999.0,85,-99.99,,,0.00,weatherlink.com 1.10,2013-01-05 09:36:00,
2013-01-05 03:51:00,12.0,8.0,30.06,ENE,76,2.0,-999.0,85,-99.99,,,0.00,weatherlink.com 1.10,2013-01-05 09:51:00,
2013-01-05 04:05:00,11.4,8.0,30.07,NW,314,1.0,-999.0,84,-99.99,,,0.00,weatherlink.com 1.10,2013-01-05 10:05:00,
2013-01-05 04:19:00,11.0,7.0,30.07,NW,314,0.0,-999.0,84,-99.99,,,0.00,weatherlink.com 1.10,2013-01-05 10:19:00,
2013-01-05 04:33:00,9.9,6.0,30.07,NW,314,1.0,-999.0,83,-99.99,,,0.00,weatherlink.com 1.10,2013-01-05 10:33:00,
2013-01-05 04:48:00,9.1,5.0,30.05,NW,314,1.0,-999.0,83,-99.99,,,0.00,weatherlink.com 1.10,2013-01-05 10:48:00,
2013-01-05 05:02:00,9.1,5.0,30.05,East,98,1.0,-999.0,84,-99.99,,,0.00,weatherlink.com 1.10,2013-01-05 11:02:00,
2013-01-05 05:16:00,9.6,6.0,30.06,ESE,104,2.0,-999.0,85,-99.99,,,0.00,weatherlink.com 1.10,2013-01-05 11:16:00,
2013-01-05 05:31:00,9.9,6.0,30.04,ESE,108,2.0,-999.0,85,-99.99,,,0.00,weatherlink.com 1.10,2013-01-05 11:31:00,
2013-01-05 05:45:00,10.2,7.0,30.04,East,95,0.0,-999.0,85,-99.99,,,0.00,weatherlink.com 1.10,2013-01-05 11:45:00,
2013-01-05 05:59:00,10.1,6.0,30.04,East,95,1.0,-999.0,84,-99.99,,,0.00,weatherlink.com 1.10,2013-01-05 11:59:00,
2013-01-05 06:14:00,9.9,6.0,30.03,ESE,120,3.0,-999.0,84,-99.99,,,0.00,weatherlink.com 1.10,2013-01-05 12:14:00,
2013-01-05 06:28:00,9.9,6.0,30.04,East,96,0.0,-999.0,84,-99.99,,,0.00,weatherlink.com 1.10,2013-01-05 12:28:00,
2013-01-05 06:42:00,9.6,6.0,30.03,East,96,0.0,-999.0,84,-99.99,,,0.00,weatherlink.com 1.10,2013-01-05 12:42:00,
2013-01-05 06:57:00,9.5,6.0,30.03,SW,221,0.0,-999.0,84,-99.99,,,0.00,weatherlink.com 1.10,2013-01-05 12:57:00,
2013-01-05 07:11:00,9.2,5.0,30.03,South,179,0.0,-999.0,84,-99.99,,,0.00,weatherlink.com 1.10,2013-01-05 13:11:00,
2013-01-05 07:25:00,9.1,5.0,30.02,South,179,0.0,-999.0,84,-99.99,,,0.00,weatherlink.com 1.10,2013-01-05 13:25:00,
2013-01-05 07:40:00,9.0,5.0,30.02,South,179,0.0,-999.0,84,-99.99,,,0.00,weatherlink.com 1.10,2013-01-05 13:40:00,
2013-01-05 07:54:00,8.9,5.0,30.02,South,180,1.0,-999.0,84,-99.99,,,0.00,weatherlink.com 1.10,2013-01-05 13:54:00,
2013-01-05 08:08:00,8.9,5.0,30.01,SE,137,0.0,-999.0,84,-99.99,,,0.00,weatherlink.com 1.10,2013-01-05 14:08:00,
2013-01-05 08:22:00,9.0,5.0,30.01,SE,137,0.0,-999.0,84,-99.99,,,0.00,weatherlink.com 1.10,2013-01-05 14:22:00,
2013-01-05 08:37:00,9.9,6.0,30.01,SE,141,0.0,-999.0,85,-99.99,,,0.00,weatherlink.com 1.10,2013-01-05 14:37:00,
2013-01-05 08:51:00,11.3,8.0,30.00,SSE,154,0.0,-999.0,85,-99.99,,,0.00,weatherlink.com 1.10,2013-01-05 14:51:00,
2013-01-05 09:05:00,12.6,9.0,30.00,South,179,4.0,-999.0,86,-99.99,,,0.00,weatherlink.com 1.10,2013-01-05 15:05:00,
2013-01-05 09:19:00,13.2,10.0,29.99,SSE,153,2.0,-999.0,85,-99.99,,,0.00,weatherlink.com 1.10,2013-01-05 15:19:00,
2013-01-05 09:34:00,13.7,10.0,30.00,SSW,195,2.0,-999.0,84,-99.99,,,0.00,weatherlink.com 1.10,2013-01-05 15:34:00,
2013-01-05 09:48:00,13.9,10.0,30.00,South,187,4.0,-999.0,84,-99.99,,,0.00,weatherlink.com 1.10,2013-01-05 15:48:00,
2013-01-05 10:02:00,14.8,11.0,29.99,SSE,153,4.0,-999.0,84,-99.99,,,0.00,weatherlink.com 1.10,2013-01-05 16:02:00,
2013-01-05 10:17:00,15.3,11.0,30.00,SSW,205,3.0,-999.0,82,-99.99,,,0.00,weatherlink.com 1.10,2013-01-05 16:17:00,
2013-01-05 10:31:00,15.9,11.0,29.99,SSW,193,1.0,-999.0,81,-99.99,,,0.00,weatherlink.com 1.10,2013-01-05 16:31:00,
2013-01-05 10:45:00,17.1,12.0,29.98,SSW,208,0.0,-999.0,79,-99.99,,,0.00,weatherlink.com 1.10,2013-01-05 16:45:00,
2013-01-05 11:00:00,18.1,12.0,29.97,WSW,240,1.0,-999.0,77,-99.99,,,0.00,weatherlink.com 1.10,2013-01-05 17:00:00,
2013-01-05 11:14:00,18.5,12.0,29.97,SW,231,4.0,-999.0,76,-99.99,,,0.00,weatherlink.com 1.10,2013-01-05 17:14:00,
2013-01-05 11:28:00,18.3,12.0,29.98,SSW,202,1.0,-999.0,75,-99.99,,,0.00,weatherlink.com 1.10,2013-01-05 17:28:00,
2013-01-05 11:42:00,18.4,12.0,29.97,West,276,1.0,-999.0,75,-99.99,,,0.00,weatherlink.com 1.10,2013-01-05 17:42:00,
2013-01-05 11:57:00,19.6,12.0,29.97,West,272,1.0,-999.0,73,-99.99,,,0.00,weatherlink.com 1.10,2013-01-05 17:57:00,
2013-01-05 12:11:00,20.3,13.0,29.96,West,262,3.0,-999.0,73,-99.99,,,0.00,weatherlink.com 1.10,2013-01-05 18:11:00,
2013-01-05 12:26:00,20.2,12.0,29.95,South,191,2.0,-999.0,71,-99.99,,,0.00,weatherlink.com 1.10,2013-01-05 18:26:00,
2013-01-05 12:40:00,20.9,13.0,29.95,SW,221,1.0,-999.0,70,-99.99,,,0.00,weatherlink.com 1.10,2013-01-05 18:40:00,
2013-01-05 12:54:00,21.2,13.0,29.94,SSE,164,4.0,-999.0,69,-99.99,,,0.00,weatherlink.com 1.10,2013-01-05 18:54:00,
2013-01-05 13:09:00,21.6,13.0,29.93,South,179,0.0,-999.0,69,-99.99,,,0.00,weatherlink.com 1.10,2013-01-05 19:09:00,
2013-01-05 13:23:00,21.7,13.0,29.92,SSE,155,2.0,-999.0,68,-99.99,,,0.00,weatherlink.com 1.10,2013-01-05 19:23:00,
2013-01-05 13:37:00,22.1,13.0,29.92,SSW,205,4.0,-999.0,68,-99.99,,,0.00,weatherlink.com 1.10,2013-01-05 19:37:00,
2013-01-05 13:52:00,22.3,13.0,29.91,SW,226,1.0,-999.0,68,-99.99,,,0.00,weatherlink.com 1.10,2013-01-05 19:52:00,
2013-01-05 14:06:00,22.4,13.0,29.91,SSW,213,1.0,-999.0,68,-99.99,,,0.00,weatherlink.com 1.10,2013-01-05 20:06:00,
2013-01-05 14:20:00,23.0,14.0,29.91,SW,217,0.0,-999.0,67,-99.99,,,0.00,weatherlink.com 1.10,2013-01-05 20:20:00,
2013-01-05 14:34:00,22.8,13.0,29.91,SSW,209,1.0,-999.0,66,-99.99,,,0.00,weatherlink.com 1.10,2013-01-05 20:34:00,
2013-01-05 14:49:00,22.7,13.0,29.90,South,175,3.0,-999.0,67,-99.99,,,0.00,weatherlink.com 1.10,2013-01-05 20:49:00,
2013-01-05 15:03:00,22.9,14.0,29.91,South,175,4.0,-999.0,67,-99.99,,,0.00,weatherlink.com 1.10,2013-01-05 21:03:00,
2013-01-05 15:17:00,22.5,13.0,29.91,South,175,3.0,-999.0,67,-99.99,,,0.00,weatherlink.com 1.10,2013-01-05 21:17:00,
2013-01-05 15:32:00,21.9,13.0,29.92,SSW,200,0.0,-999.0,68,-99.99,,,0.00,weatherlink.com 1.10,2013-01-05 21:32:00,
2013-01-05 15:46:00,21.8,13.0,29.93,SW,221,0.0,-999.0,69,-99.99,,,0.00,weatherlink.com 1.10,2013-01-05 21:46:00,
2013-01-05 16:00:00,21.7,13.0,29.93,West,263,2.0,-999.0,68,-99.99,,,0.00,weatherlink.com 1.10,2013-01-05 22:00:00,
2013-01-05 16:14:00,21.2,13.0,29.93,West,263,1.0,-999.0,69,-99.99,,,0.00,weatherlink.com 1.10,2013-01-05 22:14:00,
2013-01-05 16:29:00,20.5,12.0,29.94,West,264,1.0,-999.0,70,-99.99,,,0.00,weatherlink.com 1.10,2013-01-05 22:29:00,
2013-01-05 16:43:00,20.2,12.0,29.94,West,264,0.0,-999.0,71,-99.99,,,0.00,weatherlink.com 1.10,2013-01-05 22:43:00,
2013-01-05 16:57:00,19.7,12.0,29.95,West,263,0.0,-999.0,72,-99.99,,,0.00,weatherlink.com 1.10,2013-01-05 22:57:00,
2013-01-05 17:11:00,19.3,12.0,29.95,West,264,0.0,-999.0,72,-99.99,,,0.00,weatherlink.com 1.10,2013-01-05 23:11:00,
2013-01-05 17:26:00,18.8,12.0,29.96,West,263,1.0,-999.0,73,-99.99,,,0.00,weatherlink.com 1.10,2013-01-05 23:26:00,
2013-01-05 17:40:00,18.6,12.0,29.96,WSW,248,3.0,-999.0,75,-99.99,,,0.00,weatherlink.com 1.10,2013-01-05 23:40:00,
2013-01-05 17:54:00,19.3,13.0,29.98,WNW,293,5.0,-999.0,76,-99.99,,,0.00,weatherlink.com 1.10,2013-01-05 23:54:00,
2013-01-05 18:09:00,20.0,14.0,29.98,WNW,286,3.0,-999.0,76,-99.99,,,0.00,weatherlink.com 1.10,2013-01-06 00:09:00,
2013-01-05 18:23:00,20.4,14.0,29.99,West,281,6.0,-999.0,76,-99.99,,,0.00,weatherlink.com 1.10,2013-01-06 00:23:00,
2013-01-05 18:38:00,20.0,14.0,30.00,WNW,301,5.0,-999.0,76,-99.99,,,0.00,weatherlink.com 1.10,2013-01-06 00:38:00,
2013-01-05 18:52:00,19.7,14.0,30.00,WNW,300,4.0,-999.0,77,-99.99,,,0.00,weatherlink.com 1.10,2013-01-06 00:52:00,
2013-01-05 19:06:00,19.3,13.0,30.01,West,265,9.0,-999.0,77,-99.99,,,0.00,weatherlink.com 1.10,2013-01-06 01:06:00,
2013-01-05 19:20:00,18.9,13.0,30.02,West,281,6.0,-999.0,77,-99.99,,,0.00,weatherlink.com 1.10,2013-01-06 01:20:00,
2013-01-05 19:35:00,18.4,13.0,30.02,WNW,291,9.0,-999.0,78,-99.99,,,0.00,weatherlink.com 1.10,2013-01-06 01:35:00,
2013-01-05 19:49:00,18.2,13.0,30.03,WNW,301,6.0,-999.0,79,-99.99,,,0.00,weatherlink.com 1.10,2013-01-06 01:49:00,
2013-01-05 20:03:00,18.2,13.0,30.03,WNW,295,4.0,-999.0,80,-99.99,,,0.00,weatherlink.com 1.10,2013-01-06 02:03:00,
2013-01-05 20:17:00,18.0,13.0,30.03,WNW,287,3.0,-999.0,80,-99.99,,,0.00,weatherlink.com 1.10,2013-01-06 02:17:00,
2013-01-05 20:32:00,17.8,13.0,30.04,West,271,5.0,-999.0,80,-99.99,,,0.00,weatherlink.com 1.10,2013-01-06 02:32:00,
2013-01-05 20:46:00,17.5,12.0,30.04,West,272,5.0,-999.0,80,-99.99,,,0.00,weatherlink.com 1.10,2013-01-06 02:46:00,
2013-01-05 21:00:00,17.0,12.0,30.04,West,275,4.0,-999.0,80,-99.99,,,0.00,weatherlink.com 1.10,2013-01-06 03:00:00,
2013-01-05 21:15:00,16.3,11.0,30.03,WSW,252,3.0,-999.0,80,-99.99,,,0.00,weatherlink.com 1.10,2013-01-06 03:15:00,
2013-01-05 21:29:00,15.7,11.0,30.05,West,275,10.0,-999.0,81,-99.99,,,0.00,weatherlink.com 1.10,2013-01-06 03:29:00,
2013-01-05 21:43:00,15.6,11.0,30.05,West,276,6.0,-999.0,81,-99.99,,,0.00,weatherlink.com 1.10,2013-01-06 03:43:00,
2013-01-05 21:57:00,15.1,10.0,30.07,WNW,298,8.0,-999.0,80,-99.99,,,0.00,weatherlink.com 1.10,2013-01-06 03:57:00,
2013-01-05 22:12:00,14.7,10.0,30.07,WNW,287,6.0,-999.0,81,-99.99,,,0.00,weatherlink.com 1.10,2013-01-06 04:12:00,
2013-01-05 22:26:00,14.5,9.0,30.07,West,272,7.0,-999.0,80,-99.99,,,0.00,weatherlink.com 1.10,2013-01-06 04:26:00,
2013-01-05 22:40:00,14.1,9.0,30.07,WNW,294,7.0,-999.0,80,-99.99,,,0.00,weatherlink.com 1.10,2013-01-06 04:40:00,
2013-01-05 22:54:00,13.8,9.0,30.08,West,278,3.0,-999.0,80,-99.99,,,0.00,weatherlink.com 1.10,2013-01-06 04:54:00,
2013-01-05 23:23:00,13.0,8.0,30.08,WNW,294,5.0,-999.0,81,-99.99,,,0.00,weatherlink.com 1.10,2013-01-06 05:23:00,
2013-01-05 23:37:00,13.3,9.0,30.08,WNW,285,3.0,-999.0,82,-99.99,,,0.00,weatherlink.com 1.10,2013-01-06 05:37:00,
2013-01-05 23:51:00,13.5,9.0,30.09,WSW,256,2.0,-999.0,81,-99.99,,,0.00,weatherlink.com 1.10,2013-01-06 05:51:00,